• In Romania
  • List of Countries
  • For 7 days
  • Water Temperature
  • Satellite Maps
  • Weather Map
  • Weather Widgets
  • user-avatar
    Login

    Hourly Weather Mingachevir

    Today, 26 July, Wednesday

    Time Temperature Precipitation Wind Pressure Humidity
    00:00 +29°C° 0.2 mm 2 mps 747 mmHg 49%
    01:00 +28°C° 0.4 mm 2 mps 747 mmHg 51%
    02:00 +28°C° 0.4 mm 2 mps 747 mmHg 53%
    03:00 +27°C° 0.4 mm 1 mps 747 mmHg 54%
    04:00 +27°C° 0 mm 1 mps 747 mmHg 53%
    05:00 +28°C° 0 mm 1 mps 747 mmHg 52%
    06:00 +28°C° 0 mm 1 mps 747 mmHg 50%
    07:00 +30°C° 0 mm 2 mps 747 mmHg 46%
    08:00 +31°C° 0 mm 2 mps 747 mmHg 42%
    09:00 +34°C° 0 mm 2 mps 747 mmHg 37%
    10:00 +35°C° 0 mm 2 mps 747 mmHg 35%
    11:00 +36°C° 0 mm 2 mps 747 mmHg 34%
    12:00 +37°C° 0 mm 2 mps 746 mmHg 32%
    13:00 +38°C° 0 mm 2 mps 746 mmHg 31%
    14:00 +39°C° 0 mm 2 mps 746 mmHg 30%
    15:00 +39°C° 0 mm 3 mps 746 mmHg 29%
    16:00 +39°C° 0 mm 3 mps 746 mmHg 30%
    17:00 +38°C° 0 mm 3 mps 746 mmHg 30%
    18:00 +38°C° 0 mm 3 mps 747 mmHg 31%
    19:00 +36°C° 0 mm 3 mps 747 mmHg 35%
    20:00 +34°C° 0 mm 3 mps 747 mmHg 38%
    21:00 +32°C° 0 mm 4 mps 748 mmHg 42%
    22:00 +31°C° 0 mm 3 mps 748 mmHg 44%
    23:00 +30°C° 0 mm 3 mps 748 mmHg 45%

    Tomorrow, 27 July, Thursday

    Time Temperature Precipitation Wind Pressure Humidity
    00:00 +29°C° 0 mm 2 mps 749 mmHg 47%
    01:00 +29°C° 0 mm 2 mps 749 mmHg 48%
    02:00 +28°C° 0 mm 2 mps 749 mmHg 49%
    03:00 +28°C° 0 mm 1 mps 749 mmHg 50%
    04:00 +28°C° 0 mm 1 mps 749 mmHg 50%
    05:00 +28°C° 0 mm 1 mps 749 mmHg 49%
    06:00 +29°C° 0 mm 1 mps 750 mmHg 48%
    07:00 +30°C° 0 mm 1 mps 749 mmHg 44%
    08:00 +32°C° 0 mm 1 mps 749 mmHg 40%
    09:00 +34°C° 0 mm 1 mps 749 mmHg 35%
    10:00 +36°C° 0 mm 2 mps 749 mmHg 33%
    11:00 +37°C° 0 mm 2 mps 749 mmHg 30%
    12:00 +38°C° 0 mm 2 mps 748 mmHg 28%
    13:00 +39°C° 0 mm 2 mps 748 mmHg 26%
    14:00 +40°C° 0 mm 3 mps 748 mmHg 25%
    15:00 +42°C° 0 mm 3 mps 748 mmHg 23%
    16:00 +40°C° 0 mm 3 mps 748 mmHg 24%
    17:00 +40°C° 0 mm 3 mps 748 mmHg 24%
    18:00 +40°C° 0 mm 3 mps 748 mmHg 25%
    19:00 +38°C° 0 mm 4 mps 748 mmHg 28%
    20:00 +36°C° 0 mm 4 mps 749 mmHg 30%
    21:00 +34°C° 0 mm 4 mps 749 mmHg 33%
    22:00 +33°C° 0 mm 4 mps 749 mmHg 34%
    23:00 +31°C° 0 mm 3 mps 750 mmHg 36%

    Day after tomorrow, 28 July, Friday

    Time Temperature Precipitation Wind Pressure Humidity
    00:00 +30°C° 0 mm 3 mps 750 mmHg 37%
    01:00 +30°C° 0 mm 2 mps 750 mmHg 38%
    02:00 +29°C° 0 mm 2 mps 750 mmHg 39%
    03:00 +29°C° 0 mm 2 mps 750 mmHg 39%
    04:00 +29°C° 0 mm 2 mps 750 mmHg 39%
    05:00 +30°C° 0 mm 1 mps 750 mmHg 39%
    06:00 +30°C° 0 mm 1 mps 750 mmHg 39%
    07:00 +32°C° 0 mm 1 mps 749 mmHg 36%
    08:00 +34°C° 0 mm 1 mps 749 mmHg 32%
    09:00 +36°C° 0 mm 2 mps 749 mmHg 29%
    10:00 +38°C° 0 mm 2 mps 748 mmHg 27%
    11:00 +39°C° 0 mm 2 mps 748 mmHg 25%
    12:00 +41°C° 0 mm 2 mps 748 mmHg 23%
    13:00 +41°C° 0 mm 2 mps 747 mmHg 22%
    14:00 +42°C° 0 mm 2 mps 747 mmHg 21%
    15:00 +43°C° 0 mm 2 mps 746 mmHg 20%
    16:00 +42°C° 0 mm 2 mps 746 mmHg 20%
    17:00 +42°C° 0 mm 2 mps 746 mmHg 21%
    18:00 +42°C° 0 mm 2 mps 746 mmHg 21%
    19:00 +39°C° 0 mm 3 mps 746 mmHg 24%
    20:00 +37°C° 0 mm 3 mps 747 mmHg 27%
    21:00 +35°C° 0 mm 3 mps 747 mmHg 30%
    22:00 +34°C° 0 mm 3 mps 747 mmHg 33%
    23:00 +33°C° 0 mm 3 mps 748 mmHg 37%

    29 July, Saturday

    Time Temperature Precipitation Wind Pressure Humidity
    00:00 +31°C° 0 mm 2 mps 748 mmHg 40%
    01:00 +30°C° 0 mm 2 mps 748 mmHg 42%
    02:00 +29°C° 0 mm 1 mps 748 mmHg 44%
    03:00 +29°C° 0 mm 1 mps 748 mmHg 46%
    04:00 +29°C° 0 mm 1 mps 748 mmHg 44%
    05:00 +30°C° 0 mm 2 mps 748 mmHg 43%
    06:00 +30°C° 0 mm 2 mps 748 mmHg 42%
    07:00 +34°C° 0 mm 3 mps 748 mmHg 36%
    08:00 +36°C° 0 mm 3 mps 748 mmHg 30%
    09:00 +38°C° 0 mm 3 mps 748 mmHg 25%
    10:00 +40°C° 0 mm 3 mps 747 mmHg 23%
    11:00 +42°C° 0 mm 3 mps 747 mmHg 21%
    12:00 +43°C° 0 mm 3 mps 746 mmHg 19%
    13:00 +44°C° 0 mm 3 mps 746 mmHg 18%
    14:00 +45°C° 0 mm 3 mps 746 mmHg 17%
    15:00 +45°C° 0 mm 3 mps 745 mmHg 17%
    16:00 +45°C° 0 mm 2 mps 746 mmHg 17%
    17:00 +45°C° 0 mm 2 mps 746 mmHg 18%
    18:00 +43°C° 0 mm 2 mps 746 mmHg 19%
    19:00 +41°C° 0 mm 2 mps 747 mmHg 21%
    20:00 +39°C° 0 mm 3 mps 748 mmHg 24%
    21:00 +36°C° 0 mm 3 mps 749 mmHg 27%
    22:00 +35°C° 0 mm 3 mps 749 mmHg 32%
    23:00 +34°C° 0 mm 3 mps 749 mmHg 36%

    30 July, Sunday

    Time Temperature Precipitation Wind Pressure Humidity
    00:00 +33°C° 0 mm 3 mps 750 mmHg 41%
    01:00 +33°C° 0 mm 3 mps 750 mmHg 43%
    02:00 +32°C° 0 mm 4 mps 750 mmHg 44%
    03:00 +32°C° 0 mm 4 mps 750 mmHg 45%
    04:00 +32°C° 0 mm 4 mps 751 mmHg 46%
    05:00 +32°C° 0 mm 4 mps 751 mmHg 46%
    06:00 +32°C° 0 mm 4 mps 751 mmHg 46%
    07:00 +34°C° 0 mm 4 mps 751 mmHg 41%
    08:00 +35°C° 0 mm 4 mps 751 mmHg 36%
    09:00 +37°C° 0 mm 4 mps 751 mmHg 30%
    10:00 +38°C° 0 mm 4 mps 751 mmHg 28%
    11:00 +39°C° 0 mm 3 mps 751 mmHg 26%
    12:00 +40°C° 0 mm 2 mps 750 mmHg 24%
    13:00 +41°C° 0 mm 2 mps 750 mmHg 23%
    14:00 +42°C° 0 mm 2 mps 750 mmHg 22%
    15:00 +43°C° 0 mm 3 mps 750 mmHg 22%
    16:00 +43°C° 0 mm 3 mps 750 mmHg 22%
    17:00 +43°C° 0 mm 4 mps 750 mmHg 23%
    18:00 +42°C° 0 mm 4 mps 750 mmHg 24%
    19:00 +40°C° 0 mm 5 mps 751 mmHg 30%
    20:00 +37°C° 0 mm 5 mps 751 mmHg 36%
    21:00 +34°C° 0 mm 6 mps 752 mmHg 41%
    22:00 +33°C° 0.1 mm 5 mps 752 mmHg 44%
    23:00 +33°C° 0.1 mm 4 mps 753 mmHg 47%

    31 July, Monday

    Time Temperature Precipitation Wind Pressure Humidity
    00:00 +31°C° 0.1 mm 3 mps 753 mmHg 49%
    01:00 +30°C° 0.1 mm 3 mps 753 mmHg 51%
    02:00 +30°C° 0.1 mm 2 mps 753 mmHg 52%
    03:00 +29°C° 0.1 mm 2 mps 753 mmHg 53%
    04:00 +30°C° 0 mm 2 mps 753 mmHg 52%
    05:00 +30°C° 0 mm 2 mps 754 mmHg 51%
    06:00 +30°C° 0 mm 1 mps 754 mmHg 50%
    07:00 +32°C° 0 mm 2 mps 754 mmHg 45%
    08:00 +35°C° 0 mm 3 mps 754 mmHg 40%
    09:00 +37°C° 0 mm 4 mps 754 mmHg 34%
    10:00 +38°C° 0 mm 4 mps 754 mmHg 32%
    11:00 +40°C° 0 mm 5 mps 753 mmHg 30%
    12:00 +41°C° 0 mm 5 mps 753 mmHg 27%
    13:00 +42°C° 0 mm 6 mps 753 mmHg 27%
    14:00 +42°C° 0 mm 6 mps 752 mmHg 26%
    15:00 +42°C° 0 mm 6 mps 752 mmHg 26%
    16:00 +41°C° 0 mm 7 mps 752 mmHg 27%
    17:00 +41°C° 0 mm 7 mps 752 mmHg 29%
    18:00 +40°C° 0 mm 8 mps 752 mmHg 31%
    19:00 +38°C° 0 mm 7 mps 753 mmHg 36%
    20:00 +35°C° 0 mm 7 mps 754 mmHg 41%
    21:00 +33°C° 0 mm 6 mps 754 mmHg 46%
    22:00 +32°C° 0 mm 5 mps 754 mmHg 49%
    23:00 +30°C° 0 mm 4 mps 754 mmHg 51%
    Show more